Location: Harmony
(28.2000°N, 81.1500°W)
Time: 22:54:04
(UTC-04:00)

Cosmos 2344 - Pass Details

Date: 18 December 2017
Orbit: 1278 x 2964 km, 63.3° (Epoch: 23 April)

Event Time Altitude Azimuth Distance (km) Brightness Sun altitude
Rises 19:08:08 0° 202° (SSW) 4,483 7.0 -20.5°
Reaches altitude 10° 19:11:06 10° 201° (SSW) 3,399 6.3 -21.2°
Maximum altitude 19:18:55 78° 116° (ESE) 1,305 3.5 -22.8°
Enters shadow 19:23:01 31° 35° (NE) 2,108 4.3 -23.7°
